NKS1930 KDFW-KGYR

Flight info

Callsign NKS1930
Flight time N/A
Altitude 34000
Route NELYN6 HOARY JCT EWM SSO SUNSS8
Aircraft A319/M-SDE3FGHIRWY/LB1

Departure

Time N/A
Airport Dallas Fort Worth International Airport (KDFW)

Arrival

Time 2026-05-08 02:05
Airport Phoenix Goodyear Airport (KGYR)
Time Latitude Longitude Altitude Speed Heading
2026-05-08 01:08 31.87808 -105.87095 33873 ft 418 kts 273°
2026-05-08 01:09 31.88837 -105.92658 33863 ft 419 kts 274°
2026-05-08 01:09 31.90074 -105.99362 33880 ft 420 kts 274°
2026-05-08 01:10 31.91312 -106.06131 33919 ft 424 kts 274°
2026-05-08 01:10 31.92565 -106.12932 33930 ft 425 kts 274°
2026-05-08 01:11 31.93819 -106.19739 33955 ft 425 kts 274°
2026-05-08 01:11 31.95059 -106.26543 33966 ft 425 kts 274°
2026-05-08 01:12 31.96046 -106.33362 33971 ft 420 kts 270°
2026-05-08 01:12 31.96776 -106.40146 33970 ft 421 kts 269°
2026-05-08 01:13 31.97500 -106.46991 33948 ft 422 kts 270°
2026-05-08 01:13 31.98280 -106.53855 33949 ft 423 kts 270°
2026-05-08 01:14 31.99088 -106.60728 33970 ft 423 kts 270°
2026-05-08 01:14 31.99886 -106.67604 33980 ft 423 kts 270°
2026-05-08 01:15 32.00673 -106.74476 33988 ft 424 kts 270°
2026-05-08 01:15 32.01456 -106.81325 33971 ft 425 kts 270°
2026-05-08 01:16 32.02254 -106.88249 33917 ft 427 kts 271°
2026-05-08 01:16 32.03045 -106.95198 33921 ft 428 kts 270°
2026-05-08 01:17 32.03825 -107.02161 33917 ft 428 kts 270°
2026-05-08 01:17 32.04595 -107.09125 33897 ft 429 kts 270°
2026-05-08 01:18 32.05363 -107.16111 33879 ft 430 kts 270°
2026-05-08 01:18 32.06137 -107.23104 33847 ft 430 kts 270°
2026-05-08 01:19 32.06911 -107.30103 33846 ft 430 kts 270°
2026-05-08 01:19 32.07685 -107.37098 33845 ft 430 kts 270°
2026-05-08 01:20 32.08443 -107.44096 33890 ft 431 kts 270°
2026-05-08 01:20 32.09197 -107.51088 33893 ft 433 kts 270°
2026-05-08 01:21 32.09953 -107.58147 33921 ft 434 kts 271°
2026-05-08 01:21 32.10719 -107.65217 33972 ft 435 kts 271°
2026-05-08 01:22 32.11481 -107.72299 33974 ft 435 kts 270°
2026-05-08 01:22 32.12236 -107.79391 33957 ft 437 kts 271°
2026-05-08 01:22 32.12613 -107.82950 33815 ft 438 kts 271°
2026-05-08 01:23 32.12988 -107.86524 33815 ft 439 kts 271°
2026-05-08 01:23 32.13736 -107.93695 33818 ft 441 kts 271°
2026-05-08 01:24 32.14483 -108.00887 33823 ft 442 kts 271°
2026-05-08 01:24 32.15228 -108.08086 33826 ft 442 kts 271°
2026-05-08 01:25 32.15978 -108.15288 33835 ft 442 kts 271°
2026-05-08 01:25 32.16729 -108.22494 33833 ft 442 kts 271°
2026-05-08 01:26 32.17473 -108.29708 33832 ft 442 kts 271°
2026-05-08 01:26 32.18194 -108.36868 33866 ft 442 kts 271°
2026-05-08 01:27 32.18913 -108.44088 33919 ft 443 kts 272°
2026-05-08 01:27 32.19636 -108.51332 33920 ft 446 kts 272°
2026-05-08 01:28 32.20370 -108.58618 33946 ft 448 kts 272°
2026-05-08 01:28 32.21097 -108.65926 33969 ft 449 kts 272°
2026-05-08 01:29 32.21812 -108.73257 33974 ft 450 kts 272°
2026-05-08 01:29 32.22173 -108.76925 33809 ft 450 kts 272°
2026-05-08 01:29 32.22536 -108.80600 33820 ft 451 kts 272°
2026-05-08 01:30 32.23254 -108.87926 33806 ft 453 kts 272°
2026-05-08 01:30 32.23974 -108.95380 33835 ft 461 kts 274°
2026-05-08 01:31 32.24700 -109.02929 33832 ft 463 kts 274°
2026-05-08 01:31 32.25424 -109.10491 33832 ft 464 kts 274°
2026-05-08 01:32 32.26147 -109.18105 33838 ft 469 kts 275°
2026-05-08 01:32 32.26918 -109.25795 33841 ft 472 kts 278°
2026-05-08 01:33 32.28639 -109.33301 33837 ft 473 kts 284°
2026-05-08 01:33 32.30463 -109.40729 33843 ft 474 kts 284°
2026-05-08 01:34 32.32287 -109.48216 33848 ft 474 kts 285°
2026-05-08 01:34 32.34108 -109.55727 33830 ft 476 kts 285°
2026-05-08 01:35 32.35935 -109.63260 33825 ft 477 kts 285°
2026-05-08 01:35 32.37756 -109.70812 33821 ft 478 kts 287°
2026-05-08 01:36 32.39580 -109.78394 33827 ft 480 kts 287°
2026-05-08 01:36 32.41406 -109.86009 33841 ft 482 kts 288°
2026-05-08 01:37 32.43237 -109.93673 33847 ft 484 kts 288°
2026-05-08 01:37 32.45078 -110.01370 33872 ft 487 kts 288°
2026-05-08 01:38 32.46915 -110.09105 33863 ft 488 kts 287°
2026-05-08 01:38 32.48750 -110.16841 33865 ft 489 kts 288°
2026-05-08 01:39 32.50581 -110.24551 33860 ft 490 kts 288°
2026-05-08 01:39 32.52420 -110.32327 33853 ft 490 kts 288°
2026-05-08 01:40 32.54267 -110.40160 33862 ft 495 kts 289°
2026-05-08 01:40 32.56111 -110.48040 33847 ft 496 kts 289°
2026-05-08 01:41 32.57944 -110.55930 33862 ft 496 kts 290°
2026-05-08 01:41 32.59775 -110.63809 33860 ft 495 kts 290°
2026-05-08 01:42 32.61608 -110.71682 33858 ft 495 kts 290°
2026-05-08 01:42 32.63433 -110.79566 33854 ft 495 kts 289°
2026-05-08 01:43 32.65240 -110.87414 33835 ft 496 kts 290°
2026-05-08 01:43 32.67209 -110.95250 33803 ft 491 kts 299°
2026-05-08 01:44 32.70664 -111.02027 33823 ft 473 kts 317°
2026-05-08 01:44 32.75103 -111.07756 33832 ft 471 kts 319°
2026-05-08 01:45 32.79533 -111.13492 33829 ft 471 kts 319°
2026-05-08 01:45 32.83959 -111.19244 33820 ft 471 kts 319°
2026-05-08 01:46 32.88378 -111.24991 33790 ft 471 kts 319°
2026-05-08 01:46 32.92782 -111.30706 33803 ft 471 kts 319°
2026-05-08 01:47 32.97201 -111.36452 33804 ft 471 kts 319°
2026-05-08 01:47 33.01622 -111.42210 33804 ft 471 kts 319°
2026-05-08 01:48 33.05784 -111.48213 32805 ft 474 kts 309°
2026-05-08 01:48 33.07452 -111.51641 31939 ft 479 kts 305°
2026-05-08 01:48 33.09066 -111.55100 30928 ft 476 kts 305°
2026-05-08 01:48 33.10679 -111.58559 29474 ft 478 kts 305°
2026-05-08 01:49 33.12302 -111.62033 27677 ft 481 kts 304°
2026-05-08 01:49 33.13944 -111.65538 25800 ft 485 kts 303°
2026-05-08 01:49 33.15604 -111.69077 23847 ft 490 kts 302°
2026-05-08 01:49 33.17254 -111.72600 22105 ft 490 kts 302°
2026-05-08 01:50 33.18886 -111.76105 20769 ft 476 kts 301°
2026-05-08 01:50 33.20471 -111.79524 19405 ft 466 kts 301°
2026-05-08 01:50 33.22026 -111.82883 18085 ft 457 kts 301°
2026-05-08 01:50 33.23553 -111.86175 16629 ft 449 kts 301°
2026-05-08 01:51 33.25049 -111.89399 15244 ft 439 kts 302°
2026-05-08 01:51 33.26515 -111.92553 13998 ft 428 kts 302°
2026-05-08 01:51 33.27943 -111.95620 12924 ft 414 kts 301°
2026-05-08 01:51 33.29288 -111.98521 12550 ft 384 kts 301°
2026-05-08 01:52 33.30527 -112.01210 12335 ft 354 kts 301°
2026-05-08 01:52 33.31665 -112.03688 12218 ft 327 kts 302°
2026-05-08 01:52 33.32725 -112.05992 11900 ft 311 kts 302°
2026-05-08 01:52 33.33763 -112.08235 11339 ft 306 kts 302°
2026-05-08 01:53 33.34786 -112.10443 10789 ft 302 kts 301°
2026-05-08 01:53 33.35789 -112.12612 10421 ft 294 kts 301°
2026-05-08 01:53 33.36780 -112.14754 10180 ft 294 kts 301°
2026-05-08 01:53 33.37764 -112.16882 10014 ft 292 kts 301°
2026-05-08 01:54 33.38745 -112.19003 9845 ft 291 kts 301°
2026-05-08 01:54 33.39720 -112.21114 9528 ft 289 kts 301°
2026-05-08 01:54 33.40588 -112.23273 9163 ft 290 kts 288°
2026-05-08 01:54 33.40709 -112.25642 8846 ft 292 kts 261°
2026-05-08 01:55 33.39932 -112.27867 8518 ft 294 kts 236°
2026-05-08 01:55 33.38630 -112.29738 8244 ft 290 kts 230°
2026-05-08 01:55 33.37312 -112.31503 8129 ft 280 kts 229°
2026-05-08 01:55 33.36022 -112.33197 8006 ft 271 kts 229°
2026-05-08 01:56 33.34763 -112.34835 7880 ft 264 kts 229°
2026-05-08 01:56 33.33546 -112.36432 7754 ft 256 kts 230°
2026-05-08 01:56 33.32370 -112.37981 7634 ft 247 kts 234°
2026-05-08 01:56 33.31543 -112.39713 7505 ft 235 kts 248°
2026-05-08 01:57 33.30895 -112.41471 7329 ft 228 kts 249°
2026-05-08 01:57 33.30293 -112.43186 7088 ft 225 kts 249°
2026-05-08 01:57 33.29646 -112.44878 6841 ft 223 kts 245°
2026-05-08 01:57 33.28938 -112.46518 6583 ft 222 kts 245°
2026-05-08 01:58 33.28222 -112.48146 6287 ft 221 kts 245°
2026-05-08 01:58 33.27513 -112.49775 5984 ft 220 kts 244°
2026-05-08 01:58 33.26815 -112.51405 5688 ft 220 kts 244°
2026-05-08 01:58 33.26118 -112.53020 5413 ft 218 kts 244°
2026-05-08 01:59 33.25686 -112.54715 5123 ft 213 kts 271°
2026-05-08 01:59 33.25874 -112.55851 4939 ft 211 kts 295°
2026-05-08 01:59 33.26813 -112.57169 4654 ft 211 kts 322°
2026-05-08 01:59 33.28136 -112.57930 4335 ft 215 kts 350°
2026-05-08 02:00 33.29609 -112.57672 4011 ft 220 kts 26°
2026-05-08 02:00 33.30720 -112.56425 3690 ft 225 kts 60°
2026-05-08 02:00 33.31207 -112.54649 3378 ft 225 kts 77°
2026-05-08 02:00 33.31584 -112.52821 3037 ft 228 kts 75°
2026-05-08 02:01 33.31982 -112.50988 2898 ft 228 kts 75°
2026-05-08 02:01 33.32388 -112.49153 2899 ft 228 kts 75°
2026-05-08 02:01 33.32777 -112.47339 2897 ft 220 kts 75°
2026-05-08 02:01 33.33136 -112.45661 2918 ft 198 kts 73°
2026-05-08 02:02 33.33754 -112.44283 2779 ft 184 kts 45°
2026-05-08 02:02 33.34777 -112.43442 2525 ft 177 kts 18°
2026-05-08 02:02 33.35859 -112.42908 2311 ft 162 kts 19°
2026-05-08 02:02 33.36851 -112.42411 2093 ft 150 kts 18°
2026-05-08 02:03 33.37788 -112.41909 1965 ft 147 kts 26°
2026-05-08 02:03 33.38605 -112.41150 1933 ft 151 kts 38°
2026-05-08 02:03 33.39366 -112.40275 1707 ft 152 kts 44°
2026-05-08 02:03 33.40188 -112.39486 1436 ft 150 kts 37°
2026-05-08 02:04 33.41032 -112.38738 1141 ft 150 kts 36°
2026-05-08 02:04 33.41831 -112.37997 984 ft 135 kts 37°
2026-05-08 02:04 33.42483 -112.37392 970 ft 97 kts 38°
2026-05-08 02:04 33.42941 -112.36965 966 ft 72 kts 38°
2026-05-08 02:05 33.43176 -112.36743 969 ft 20 kts 40°
2026-05-08 02:05 33.43174 -112.36605 967 ft 20 kts 156°
2026-05-08 02:05 33.43059 -112.36690 968 ft 21 kts 217°
2026-05-08 02:05 33.42929 -112.36812 965 ft 26 kts 218°
2026-05-08 02:06 33.42789 -112.36946 964 ft 14 kts 219°
2026-05-08 02:06 33.42812 -112.37040 964 ft 16 kts 312°
2026-05-08 02:06 33.42893 -112.37143 969 ft 17 kts 311°
2026-05-08 02:06 33.42956 -112.37257 966 ft 15 kts 298°
2026-05-08 02:07 33.42945 -112.37295 968 ft 3 kts 147°
2026-05-08 02:07 33.42922 -112.37276 971 ft 6 kts 159°
2026-05-08 02:07 33.42892 -112.37311 969 ft 7 kts 258°
2026-05-08 02:07 33.42891 -112.37325 971 ft 0 kts 261°